This is the latest recevied weather packets stored in our database for station/object KC9DNQ-3. If no packets are shown the sender has not sent any weather packets the latest 10 day(s).
| Time | Temp. | Humidity | Pressure | Rain* | Wind** | Luminosity | Snow |
|---|---|---|---|---|---|---|---|
| 1777507810 | 12.22° C | 58% | 1014.2 hPa | 0 mm | - | 19 W/m² | - |
| 1777507509 | 12.22° C | 57% | 1014 hPa | 0 mm | - | 33 W/m² | - |
| 1777507210 | 12.22° C | 57% | 1013.9 hPa | 0 mm | - | 28 W/m² | - |
| 1777506909 | 12.22° C | 56% | 1013.7 hPa | 0 mm | - | 25 W/m² | - |
| 1777506610 | 12.78° C | 57% | 1013.7 hPa | 0 mm | - | 40 W/m² | - |
| 1777506309 | 12.78° C | 56% | 1013.7 hPa | 0 mm | - | 60 W/m² | - |
| 1777506010 | 12.78° C | 56% | 1013.7 hPa | 0 mm | - | 69 W/m² | - |
| 1777505710 | 12.78° C | 55% | 1013.7 hPa | 0 mm | - | 70 W/m² | - |
| 1777505410 | 12.78° C | 56% | 1013.7 hPa | 0 mm | - | 76 W/m² | - |
| 1777505109 | 12.78° C | 54% | 1013.7 hPa | 0 mm | - | 69 W/m² | - |
| 1777504809 | 12.78° C | 53% | 1013.4 hPa | 0 mm | - | 74 W/m² | - |
| 1777504509 | 13.33° C | 51% | 1013.4 hPa | 0 mm | - | 70 W/m² | - |
| 1777504209 | 13.33° C | 50% | 1013.4 hPa | 0 mm | - | 60 W/m² | - |
| 1777503909 | 13.33° C | 53% | 1013.4 hPa | 0 mm | - | 69 W/m² | - |
| 1777503609 | 13.33° C | 50% | 1013.4 hPa | 0 mm | - | 77 W/m² | - |
| 1777503309 | 13.89° C | 43% | 1013.4 hPa | 0 mm | - | 100 W/m² | - |
| 1777503010 | 13.89° C | 41% | 1013.3 hPa | 0 mm | - | 109 W/m² | - |
| 1777502708 | 14.44° C | 41% | 1013.2 hPa | 0 mm | - | 255 W/m² | - |
| 1777502409 | 15° C | 38% | 1013.2 hPa | 0 mm | - | 148 W/m² | - |
| 1777502112 | 15° C | 37% | 1013.2 hPa | 0 mm | - | 489 W/m² | - |
| 1777501811 | 15° C | 39% | 1013.2 hPa | 0 mm | - | 466 W/m² | - |
| 1777501509 | 15.56° C | 38% | 1013.2 hPa | 0 mm | - | 496 W/m² | - |
| 1777501209 | 15.56° C | 38% | 1013.2 hPa | 0 mm | - | 376 W/m² | - |
| 1777500908 | 16.11° C | 40% | 1013.1 hPa | 0 mm | - | 237 W/m² | - |
| 1777500610 | 16.11° C | 40% | 1013.1 hPa | 0 mm | - | 642 W/m² | - |
* Rain latest hour (hover to see other rain measurements)
** Current wind speed in m/s (hover to see current wind gust speed)